When you browse on this site, cookies collect data to enhance your experience and personalize the content and advertising you see.
Visit our Privacy Policy to learn more. By continuing to use the site, you agree to this use of cookies and data.
  • Em Portugal
  • Lista de países
  • Para 7 dias
  • Temperatura da água
  • Mapas de satélite
  • Mapa do tempo
  • Widgets de tempo
  • user-avatar
    Iniciar Sessão

    Previsão horária em Raclawowka

    Hoje, 19 Janeiro, Sábado

    Tempo Temperatura Precipitação Vento Pressão Humidade
    00:00 -5°C° 0 mm 3 m/s 741 mmHg 92%
    01:00 -5°C° 0 mm 2 m/s 741 mmHg 93%
    02:00 -5°C° 0 mm 2 m/s 741 mmHg 93%
    03:00 -5°C° 0 mm 2 m/s 741 mmHg 93%
    04:00 -5°C° 0 mm 2 m/s 741 mmHg 93%
    05:00 -6°C° 0 mm 2 m/s 741 mmHg 92%
    06:00 -6°C° 0 mm 2 m/s 742 mmHg 92%
    07:00 -4°C° 0 mm 1 m/s 742 mmHg 91%
    08:00 -3°C° 0 mm 1 m/s 742 mmHg 88%
    09:00 -3°C° 0 mm 1 m/s 742 mmHg 85%
    10:00 -4°C° 0 mm 2 m/s 742 mmHg 82%
    11:00 -1°C° 0 mm 1 m/s 742 mmHg 79%
    12:00 -1°C° 0 mm 1 m/s 742 mmHg 75%
    13:00 0°C° 0 mm 1 m/s 742 mmHg 71%
    14:00 -1°C° 0 mm 1 m/s 741 mmHg 74%
    15:00 -1°C° 0 mm 1 m/s 741 mmHg 77%
    16:00 -3°C° 0 mm 0 m/s 741 mmHg 80%
    17:00 -2°C° 0 mm 1 m/s 741 mmHg 81%
    18:00 -3°C° 0 mm 1 m/s 741 mmHg 82%
    19:00 -3°C° 0 mm 1 m/s 741 mmHg 83%
    20:00 -3°C° 0 mm 1 m/s 741 mmHg 84%
    21:00 -3°C° 0 mm 1 m/s 741 mmHg 84%
    22:00 -4°C° 0 mm 1 m/s 741 mmHg 85%
    23:00 -4°C° 0 mm 1 m/s 740 mmHg 85%

    Amanhã, 20 Janeiro, Domingo

    Tempo Temperatura Precipitação Vento Pressão Humidade
    00:00 -4°C° 0 mm 1 m/s 740 mmHg 86%
    01:00 -4°C° 0 mm 1 m/s 740 mmHg 87%
    02:00 -4°C° 0 mm 1 m/s 740 mmHg 87%
    03:00 -4°C° 0 mm 1 m/s 739 mmHg 88%
    04:00 -6°C° 0 mm 1 m/s 739 mmHg 88%
    05:00 -6°C° 0 mm 1 m/s 739 mmHg 89%
    06:00 -6°C° 0 mm 1 m/s 738 mmHg 89%
    07:00 -6°C° 0 mm 1 m/s 738 mmHg 89%
    08:00 -4°C° 0 mm 1 m/s 738 mmHg 87%
    09:00 -4°C° 0 mm 1 m/s 739 mmHg 85%
    10:00 -3°C° 0 mm 1 m/s 739 mmHg 82%
    11:00 -2°C° 0 mm 1 m/s 738 mmHg 81%
    12:00 -2°C° 0 mm 1 m/s 738 mmHg 79%
    13:00 -2°C° 0 mm 1 m/s 738 mmHg 78%
    14:00 -2°C° 0 mm 1 m/s 738 mmHg 80%
    15:00 -2°C° 0 mm 1 m/s 738 mmHg 83%
    16:00 -2°C° 0 mm 1 m/s 738 mmHg 85%
    17:00 -3°C° 0 mm 1 m/s 738 mmHg 86%
    18:00 -3°C° 0 mm 1 m/s 739 mmHg 87%
    19:00 -3°C° 0 mm 1 m/s 739 mmHg 88%
    20:00 -3°C° 0 mm 1 m/s 739 mmHg 88%
    21:00 -4°C° 0 mm 1 m/s 740 mmHg 88%
    22:00 -4°C° 0 mm 1 m/s 740 mmHg 88%
    23:00 -4°C° 0 mm 1 m/s 740 mmHg 88%

    Depois de amanhã, 21 Janeiro, Segunda-feira

    Tempo Temperatura Precipitação Vento Pressão Humidade
    00:00 -6°C° 0 mm 1 m/s 740 mmHg 87%
    01:00 -6°C° 0 mm 1 m/s 741 mmHg 87%
    02:00 -6°C° 0 mm 1 m/s 741 mmHg 87%
    03:00 -6°C° 0 mm 1 m/s 741 mmHg 88%
    04:00 -6°C° 0 mm 1 m/s 741 mmHg 88%
    05:00 -6°C° 0 mm 1 m/s 741 mmHg 88%
    06:00 -6°C° 0 mm 1 m/s 741 mmHg 89%
    07:00 -6°C° 0 mm 1 m/s 742 mmHg 89%
    08:00 -6°C° 0 mm 1 m/s 742 mmHg 87%
    09:00 -4°C° 0 mm 1 m/s 742 mmHg 85%
    10:00 -3°C° 0 mm 1 m/s 742 mmHg 83%
    11:00 -3°C° 0 mm 1 m/s 742 mmHg 83%
    12:00 -2°C° 0 mm 1 m/s 742 mmHg 83%
    13:00 -1°C° 0 mm 1 m/s 741 mmHg 82%
    14:00 -2°C° 0 mm 1 m/s 741 mmHg 85%
    15:00 -3°C° 0 mm 0 m/s 741 mmHg 87%
    16:00 -4°C° 0 mm 0 m/s 741 mmHg 89%
    17:00 -4°C° 0 mm 0 m/s 741 mmHg 90%
    18:00 -4°C° 0 mm 0 m/s 741 mmHg 91%
    19:00 -5°C° 0 mm 0 m/s 741 mmHg 92%
    20:00 -4°C° 0 mm 1 m/s 741 mmHg 92%
    21:00 -4°C° 0 mm 1 m/s 740 mmHg 91%
    22:00 -4°C° 0 mm 1 m/s 740 mmHg 91%
    23:00 -4°C° 0 mm 1 m/s 740 mmHg 91%

    22 Janeiro, Terça-feira

    Tempo Temperatura Precipitação Vento Pressão Humidade
    00:00 -4°C° 0 mm 1 m/s 739 mmHg 92%
    01:00 -6°C° 0 mm 1 m/s 739 mmHg 92%
    02:00 -6°C° 0 mm 1 m/s 738 mmHg 92%
    03:00 -6°C° 0 mm 1 m/s 738 mmHg 91%
    04:00 -7°C° 0 mm 1 m/s 737 mmHg 91%
    05:00 -7°C° 0 mm 1 m/s 737 mmHg 91%
    06:00 -7°C° 0 mm 1 m/s 737 mmHg 90%
    07:00 -7°C° 0 mm 1 m/s 736 mmHg 90%
    08:00 -6°C° 0 mm 1 m/s 736 mmHg 86%
    09:00 -4°C° 0 mm 1 m/s 736 mmHg 83%
    10:00 -6°C° 0 mm 2 m/s 736 mmHg 79%
    11:00 -5°C° 0 mm 2 m/s 735 mmHg 76%
    12:00 -4°C° 0 mm 2 m/s 735 mmHg 73%
    13:00 -3°C° 0 mm 2 m/s 734 mmHg 70%
    14:00 -2°C° 0 mm 1 m/s 734 mmHg 73%
    15:00 -2°C° 0 mm 1 m/s 734 mmHg 76%
    16:00 -4°C° 0 mm 0 m/s 733 mmHg 78%
    17:00 -4°C° 0 mm 0 m/s 733 mmHg 79%
    18:00 -5°C° 0 mm 0 m/s 733 mmHg 80%
    19:00 -5°C° 0 mm 0 m/s 733 mmHg 80%
    20:00 -5°C° 0 mm 0 m/s 733 mmHg 81%
    21:00 -5°C° 0 mm 0 m/s 733 mmHg 81%
    22:00 -6°C° 0 mm 0 m/s 733 mmHg 82%
    23:00 -6°C° 0 mm 1 m/s 733 mmHg 83%

    23 Janeiro, Quarta-feira

    Tempo Temperatura Precipitação Vento Pressão Humidade
    00:00 -6°C° 0 mm 1 m/s 733 mmHg 84%
    01:00 -6°C° 0 mm 1 m/s 733 mmHg 85%
    02:00 -6°C° 0 mm 1 m/s 733 mmHg 86%
    03:00 -7°C° 0 mm 1 m/s 732 mmHg 88%
    04:00 -8°C° 0 mm 2 m/s 732 mmHg 89%
    05:00 -8°C° 0 mm 2 m/s 732 mmHg 90%
    06:00 -8°C° 0 mm 2 m/s 732 mmHg 91%
    07:00 -9°C° 0 mm 3 m/s 733 mmHg 93%
    08:00 -8°C° 0 mm 3 m/s 733 mmHg 90%
    09:00 -9°C° 0 mm 4 m/s 733 mmHg 88%
    10:00 -8°C° 0 mm 4 m/s 733 mmHg 85%
    11:00 -7°C° 0 mm 4 m/s 733 mmHg 82%
    12:00 -7°C° 0 mm 5 m/s 733 mmHg 79%
    13:00 -6°C° 0 mm 5 m/s 733 mmHg 76%
    14:00 -7°C° 0 mm 5 m/s 733 mmHg 78%
    15:00 -7°C° 0 mm 5 m/s 733 mmHg 80%
    16:00 -8°C° 0 mm 4 m/s 733 mmHg 82%
    17:00 -8°C° 0 mm 5 m/s 734 mmHg 84%
    18:00 -8°C° 0 mm 5 m/s 734 mmHg 85%
    19:00 -8°C° 0 mm 5 m/s 734 mmHg 87%
    20:00 -10°C° 0 mm 5 m/s 735 mmHg 86%
    21:00 -10°C° 0 mm 6 m/s 735 mmHg 85%
    22:00 -10°C° 0 mm 6 m/s 735 mmHg 84%
    23:00 -10°C° 0 mm 5 m/s 735 mmHg 84%

    24 Janeiro, Quinta-feira

    Tempo Temperatura Precipitação Vento Pressão Humidade
    00:00 -11°C° 0 mm 5 m/s 735 mmHg 85%
    01:00 -11°C° 0 mm 5 m/s 735 mmHg 85%
    02:00 -11°C° 0 mm 5 m/s 735 mmHg 85%
    03:00 -11°C° 0 mm 5 m/s 735 mmHg 85%
    04:00 -11°C° 0 mm 5 m/s 735 mmHg 86%
    05:00 -12°C° 0 mm 5 m/s 736 mmHg 86%
    06:00 -11°C° 0 mm 4 m/s 736 mmHg 86%
    07:00 -11°C° 0 mm 4 m/s 736 mmHg 86%
    08:00 -11°C° 0 mm 4 m/s 736 mmHg 86%
    09:00 -11°C° 0 mm 4 m/s 736 mmHg 85%
    10:00 -10°C° 0 mm 4 m/s 736 mmHg 84%
    11:00 -10°C° 0 mm 4 m/s 736 mmHg 81%
    12:00 -9°C° 0 mm 4 m/s 736 mmHg 79%
    13:00 -9°C° 0 mm 4 m/s 736 mmHg 76%
    14:00 -9°C° 0 mm 4 m/s 736 mmHg 77%
    15:00 -9°C° 0 mm 4 m/s 736 mmHg 78%
    16:00 -9°C° 0 mm 4 m/s 736 mmHg 79%
    17:00 -10°C° 0 mm 4 m/s 736 mmHg 81%
    18:00 -10°C° 0 mm 4 m/s 736 mmHg 83%
    19:00 -10°C° 0 mm 4 m/s 736 mmHg 85%
    20:00 -10°C° 0 mm 4 m/s 736 mmHg 85%
    21:00 -11°C° 0 mm 4 m/s 737 mmHg 85%
    22:00 -12°C° 0 mm 5 m/s 737 mmHg 84%
    23:00 -12°C° 0 mm 5 m/s 737 mmHg 84%
    Mostrar mais